Location: Georgenberg
(48.1500°N, 16.2500°E)
Time: 14:30:12
(UTC+01:00)

N. Korean satellite - Pass Details

Date: 03 December 2022
Orbit: 407 x 441 km, 97.3° (Epoch: 05 February)

Event Time Altitude Azimuth Distance (km) Brightness Sun altitude
Rises 06:34:30 0° 355° (N) 2,529 9.9 -8.4°
Reaches altitude 10° 06:37:22 10° 329° (NNW) 1,641 8.8 -8.0°
Maximum altitude 06:39:13 14° 298° (WNW) 1,413 8.2 -7.7°
Drops below altitude 10° 06:41:03 10° 266° (W) 1,624 8.7 -7.5°
Sets 06:43:51 0° 240° (WSW) 2,483 9.8 -7.0°
